Gage, OK

3:41 PM CST on January 19, 2017 (GMT -0600)
Gage

Weather History for KGAG - April, 2013

Change the Weather History Date:

Friday, April 26, 2013

  Actual Average Record
Temperature  
Mean Temperature 62 °F -  
Max Temperature 73 °F 74 °F 97 °F (1955)
Min Temperature 51 °F 48 °F 28 °F (2006)
Degree Days  
Heating Degree Days 3    
Growing Degree Days 12 (Base 50)    
Moisture  
Dew Point 49 °F    
Average Humidity 75    
Maximum Humidity 100    
Minimum Humidity 45    
Precipitation  
Precipitation 0.26 in - - ()
Sea Level Pressure  
Sea Level Pressure 30.01 in    
Wind  
Wind Speed 15 mph (ESE)    
Max Wind Speed 32 mph    
Max Gust Speed 44 mph    
Visibility 7 miles    
Events Rain , Thunderstorm    
Averages and records for this station are not official NWS values.
T = Trace of Precipitation, MM = Missing Value Source: NWS Daily Summary

Daily Weather History Graph

Daily Weather History Graph

Search for Another Location

Airport or City:

Trip Planner

Search our weather history database for the weather conditions in past years. The results will help you decide how hot, cold, wet, or windy it might be!

Date:

Astronomy

Apr. 26, 2013 Rise Set
Actual Time 6:51 AM CDT 8:22 PM CDT
Civil Twilight 6:24 AM CDT 8:50 PM CDT
Nautical Twilight 5:51 AM CDT 9:22 PM CDT
Astronomical Twilight 5:17 AM CDT 9:57 PM CDT
Moon 9:45 PM CDT (4/26) 7:21 AM CDT (4/26)
Length of Visible Light 14h 25m
Length of Day
13h 31m
Full, 99% of the Moon is Illuminated
Apr 26
Full
May 2
Last Quarter
May 9
New
May 17
First Quarter
May 24
Full

Hourly Weather History & Observations

Time (CDT) Temp. Dew Point Humidity Pressure Visibility Wind Dir Wind Speed Gust Speed Precip Events Conditions
12:53 AM 55.9 °F 35.1 °F 45% 30.03 in 10.0 mi South 17.3 mph - N/A   Clear
1:53 AM 55.4 °F 37.4 °F 51% 30.05 in 10.0 mi South 19.6 mph - N/A   Partly Cloudy
2:53 AM 55.9 °F 37.9 °F 51% 29.98 in 10.0 mi SSE 20.7 mph - N/A   Clear
3:53 AM 57.0 °F 39.0 °F 51% 30.01 in 10.0 mi SE 4.6 mph - N/A   Overcast
4:53 AM 55.9 °F 39.9 °F 55% 30.02 in 10.0 mi SE 4.6 mph - N/A   Overcast
5:53 AM 55.0 °F 42.1 °F 62% 30.01 in 10.0 mi ESE 4.6 mph - N/A   Overcast
6:53 AM 55.9 °F 42.1 °F 60% 29.98 in 10.0 mi SE 10.4 mph - N/A   Overcast
7:53 AM 57.0 °F 43.0 °F 59% 29.98 in 10.0 mi SSE 17.3 mph - N/A   Overcast
8:53 AM 60.1 °F 45.0 °F 57% 29.97 in 10.0 mi South 21.9 mph 28.8 mph N/A   Clear
9:53 AM 63.0 °F 46.9 °F 56% 29.96 in 10.0 mi South 23.0 mph 33.4 mph N/A   Clear
10:53 AM 66.0 °F 48.0 °F 52% 29.96 in 10.0 mi South 23.0 mph 31.1 mph N/A   Clear
11:53 AM 68.0 °F 50.0 °F 52% 29.97 in 10.0 mi South 18.4 mph 26.5 mph N/A   Scattered Clouds
12:53 PM 68.0 °F 50.0 °F 52% 29.96 in 10.0 mi SSW 18.4 mph 24.2 mph N/A   Overcast
1:53 PM 69.1 °F 50.0 °F 51% 29.94 in 10.0 mi South 10.4 mph - N/A   Overcast
2:53 PM 70.0 °F 51.1 °F 51% 29.93 in 10.0 mi South 8.1 mph 16.1 mph N/A   Overcast
3:53 PM 73.0 °F 52.0 °F 48% 29.89 in 10.0 mi SSE 16.1 mph 20.7 mph N/A   Mostly Cloudy
4:53 PM 69.1 °F 52.0 °F 54% 29.85 in 10.0 mi ESE 12.7 mph - 0.00 in Rain , Thunderstorm Light Rain
5:11 PM 57.2 °F 53.6 °F 88% 29.98 in 2.0 mi West 32.2 mph 43.7 mph 0.10 in Rain , Thunderstorm Light Thunderstorms and Rain
5:16 PM 55.4 °F 53.6 °F 94% 29.97 in 0.8 mi North - - 0.21 in Rain , Thunderstorm Heavy Thunderstorms and Rain
5:24 PM 57.2 °F 53.6 °F 88% 29.95 in 2.5 mi NNW 24.2 mph 35.7 mph 0.25 in Rain , Thunderstorm Heavy Rain
5:33 PM 59.0 °F 51.8 °F 77% 29.97 in 8.0 mi NNW 12.7 mph 32.2 mph 0.26 in Rain , Thunderstorm Light Rain
5:53 PM 61.0 °F 55.9 °F 83% 29.95 in 10.0 mi Variable 5.8 mph - 0.26 in   Mostly Cloudy
6:53 PM 61.0 °F 55.9 °F 83% 29.96 in 10.0 mi NE 16.1 mph - N/A   Partly Cloudy
7:01 PM 59.0 °F 55.4 °F 88% 30.01 in 10.0 mi NNE 18.4 mph 23.0 mph N/A   Mostly Cloudy
7:09 PM 57.2 °F 55.4 °F 94% 30.01 in 10.0 mi NNE 20.7 mph 27.6 mph N/A   Mostly Cloudy
7:53 PM 54.0 °F 52.0 °F 93% 30.01 in 7.0 mi NE 17.3 mph 25.3 mph N/A   Overcast
8:37 PM 53.6 °F 51.8 °F 94% 30.06 in 7.0 mi NE 12.7 mph - N/A   Overcast
8:53 PM 52.0 °F 51.1 °F 97% 30.05 in 6.0 mi East 8.1 mph - N/A   Overcast
9:29 PM 51.8 °F 51.8 °F 100% 30.09 in 1.8 mi ENE 6.9 mph - N/A   Overcast
9:53 PM 52.0 °F 52.0 °F 100% 30.08 in 2.0 mi NE 4.6 mph - N/A   Overcast
10:02 PM 51.8 °F 51.8 °F 100% 30.12 in 1.2 mi NNE 5.8 mph - N/A   Overcast
10:47 PM 51.8 °F 51.8 °F 100% 30.14 in 3.0 mi North 8.1 mph - N/A   Overcast
10:53 PM 51.1 °F 51.1 °F 100% 30.11 in 5.0 mi North 9.2 mph - N/A   Overcast
11:19 PM 51.8 °F 51.8 °F 100% 30.12 in 1.8 mi NE 11.5 mph - N/A   Overcast
11:41 PM 51.8 °F 51.8 °F 100% 30.16 in 0.8 mi NW 10.4 mph - N/A   Mist
11:53 PM 51.1 °F 51.1 °F 100% 30.12 in 0.8 mi NNW 11.5 mph - N/A   Mist